Aspen, CO

6:52 AM MST on December 09, 2016 (GMT -0700)
Aspen-Pitkin County / Sardy Field

Weather History for KASE - April, 2014

Change the Weather History Date:

Wednesday, April 9, 2014

  Actual Average Record
Temperature  
Mean Temperature 46 °F 38 °F  
Max Temperature 64 °F 50 °F 68 °F (2012)
Min Temperature 28 °F 26 °F 14 °F (1982)
Degree Days  
Heating Degree Days 19 27  
Month to date heating degree days 262 252  
Since 1 July heating degree days 7388 7627  
Cooling Degree Days 0 0  
Month to date cooling degree days 0 0  
Year to date cooling degree days 0 0  
Moisture  
Dew Point 18 °F    
Average Humidity 38    
Maximum Humidity 63    
Minimum Humidity 13    
Precipitation  
Precipitation 0.00 in 0.05 in 0.73 in (2004)
Month to date precipitation 0.63 0.45  
Year to date precipitation 4.32 4.01  
Sea Level Pressure  
Sea Level Pressure 30.00 in    
Wind  
Wind Speed 7 mph (SW)    
Max Wind Speed 18 mph    
Max Gust Speed 25 mph    
Visibility 10 miles    
Events      
T = Trace of Precipitation, MM = Missing Value Source: NWS Daily Summary

Daily Weather History Graph

Daily Weather History Graph

Search for Another Location

Airport or City:

Trip Planner

Search our weather history database for the weather conditions in past years. The results will help you decide how hot, cold, wet, or windy it might be!

Date:

Astronomy

Apr. 09, 2014 Rise Set
Actual Time 6:39 AM MDT 7:39 PM MDT
Civil Twilight 6:12 AM MDT 8:06 PM MDT
Nautical Twilight 5:39 AM MDT 8:39 PM MDT
Astronomical Twilight 5:05 AM MDT 9:13 PM MDT
Moon 2:31 PM MDT 3:28 AM MDT
Length of Visible Light 13h 54m
Length of Day
12h 59m
Waxing Gibbous, 72% of the Moon is Illuminated
Apr 9
Waxing Gibbous
Apr 15
Full
Apr 22
Last Quarter
Apr 29
New
May 6
First Quarter

Hourly Weather History & Observations

Time (MDT) Temp. Windchill Dew Point Humidity Pressure Visibility Wind Dir Wind Speed Gust Speed Precip Events Conditions
12:53 AM 35.1 °F 28.6 °F 21.9 °F 59% 30.16 in 10.0 mi SSW 8.1 mph - N/A   Clear
1:53 AM 37.0 °F 31.0 °F 21.0 °F 52% 30.12 in 10.0 mi SSW 8.1 mph - N/A   Clear
2:53 AM 34.0 °F 28.0 °F 19.9 °F 56% 30.11 in 10.0 mi SSW 6.9 mph - N/A   Clear
3:53 AM 33.1 °F 26.9 °F 19.0 °F 56% 30.09 in 10.0 mi SSW 6.9 mph - N/A   Clear
4:53 AM 32.0 °F 25.6 °F 18.0 °F 56% 30.10 in 10.0 mi SSW 6.9 mph - N/A   Clear
5:53 AM 30.0 °F 21.7 °F 18.0 °F 61% 30.10 in 10.0 mi SSW 9.2 mph - N/A   Clear
6:53 AM 28.0 °F 21.7 °F 18.0 °F 66% 30.14 in 10.0 mi SSW 5.8 mph - N/A   Clear
7:53 AM 33.1 °F 30.0 °F 19.9 °F 59% 30.15 in 10.0 mi SSW 3.5 mph - N/A   Clear
8:53 AM 41.0 °F 38.0 °F 19.9 °F 43% 30.12 in 10.0 mi South 4.6 mph - N/A   Clear
9:53 AM 48.0 °F - 19.0 °F 32% 30.07 in 10.0 mi SW 4.6 mph - N/A   Clear
10:53 AM 55.9 °F - 17.1 °F 22% 30.02 in 10.0 mi North 5.8 mph - N/A   Clear
11:53 AM 60.1 °F - 18.0 °F 20% 29.99 in 10.0 mi Variable 5.8 mph - N/A   Clear
12:53 PM 61.0 °F - 16.0 °F 17% 29.96 in 10.0 mi Variable 5.8 mph 23.0 mph N/A   Partly Cloudy
1:53 PM 63.0 °F - 17.1 °F 17% 29.92 in 10.0 mi West 11.5 mph 20.7 mph N/A   Partly Cloudy
2:53 PM 61.0 °F - 16.0 °F 17% 29.92 in 10.0 mi West 9.2 mph 18.4 mph N/A   Partly Cloudy
3:53 PM 61.0 °F - 14.0 °F 16% 29.90 in 10.0 mi West 9.2 mph - N/A   Clear
4:53 PM 62.1 °F - 10.0 °F 13% 29.89 in 10.0 mi WSW 10.4 mph 17.3 mph N/A   Partly Cloudy
5:53 PM 60.1 °F - 10.9 °F 14% 29.90 in 10.0 mi Variable 3.5 mph - N/A   Clear
6:53 PM 57.9 °F - 12.0 °F 16% 29.91 in 10.0 mi WNW 6.9 mph - N/A   Partly Cloudy
7:53 PM 52.0 °F - 19.9 °F 28% 29.91 in 10.0 mi Calm Calm - N/A   Clear
8:53 PM 45.0 °F 41.8 °F 25.0 °F 46% 29.94 in 10.0 mi SSE 5.8 mph - N/A   Clear
9:53 PM 44.1 °F 40.8 °F 25.0 °F 47% 29.92 in 10.0 mi South 5.8 mph - N/A   Clear
10:53 PM 43.0 °F 38.2 °F 23.0 °F 45% 29.88 in 10.0 mi South 8.1 mph - N/A   Clear
11:53 PM 42.1 °F 36.6 °F 21.9 °F 45% 29.86 in 10.0 mi South 9.2 mph - N/A   Clear